Location: Antin
(43.3330°N, 0.2804°E)
Time: 23:21:40
(UTC+00:00)

Landsat 5 - Pass Details

Date: 16 October 2021
Orbit: 528 x 652 km, 98.2° (Epoch: 04 December)

Event Time Altitude Azimuth Distance (km) Brightness Sun altitude
Rises 17:47:11 0° 18° (NNE) 2,877 6.7 -6.8°
Reaches altitude 10° 17:49:24 10° 24° (NNE) 1,987 5.9 -7.2°
Maximum altitude 17:53:36 50° 100° (E) 809 3.8 -7.9°
Drops below altitude 10° 17:57:55 10° 176° (S) 2,029 6.2 -8.7°
Sets 18:00:12 0° 182° (S) 2,945 7.1 -9.1°
